Cloud_Cover
100 99 18 16 22 15 34 48 100 100 100 100 100 94 100 86 100 100 100 100 100 100 100 100 100 100 100 100 100 100 100 100 100 100 100 100 100 100 94 100 95 88 82
100 100 100 98 21 17 2 0 12 95 100 100 100 71 26 68 100 100 100 100 100 100 100 100 100 100 100 100 100 100 100 100 100 100 67 50 85 100 100 100 59 8 5
100 100 100 100 99 12 5 0 1 1 0 21 45 89 100 60 48 26 47 94 100 28 27 35 19 55 63 93 100 98 64 72 100 100 96 100 100 100 100 94 12 55 67
100 100 100 100 100 100 100 95 46 14 1 0 18 40 76 98 100 67 16 0 1 23 81 97 99 86 84 99 97 54 10 87 99 100 100 93 90 62 87 32 4 28 15
100 100 100 100 100 100 100 100 100 100 100 100 97 68 53 91 100 94 52 34 0 1 0 0 0 1 2 9 61 24 10 5 16 9 16 16 21 50 100 100 97 99 85
100 100 100 100 100 100 100 100 100 100 100 100 100 100 100 100 100 91 95 64 59 63 15 5 2 5 5 5 5 57 71 49 64 69 5 8 5 10 89 99 100 100 100
96 100 100 100 100 100 100 100 100 100 100 100 100 100 100 100 100 100 100 100 100 98 70 86 97 92 53 18 40 95 92 100 96 99 96 91 90 100 100 100 100 100 100
100 100 100 100 100 100 100 88 89 77 100 100 100 100 100 100 100 100 100 100 100 100 100 100 100 100 100 100 100 100 99 100 100 80 100 100 100 100 100 100 100 100 100
100 100 100 100 94 92 65 81 100 100 100 100 100 100 100 100 100 100 100 100 100 100 100 100 100 100 100 100 100 100 100 100 100 100 100 100 100 100 100 100 100 100 100
100 100 100 100 100 100 100 100 100 100 100 100 100 100 100 100 100 100 100 100 100 100 100 100 100 100 100 100 100 100 100 100 100 100 100 100 100 100 100 100 100 100 100
100 100 100 100 100 100 100 100 100 100 100 100 100 100 100 100 100 100 100 100 100 100 100 100 100 100 100 100 100 100 100 100 100 100 100 100 100 100 100 100 100 100 100
100 100 100 100 100 100 100 100 100 100 100 100 100 100 100 100 100 100 100 100 100 100 100 100 100 100 100 100 100 100 100 100 100 100 100 100 100 100 100 100 100 100 100
100 100 100 100 100 100 100 100 100 100 100 100 100 100 100 100 100 100 100 100 100 100 100 100 100 100 100 100 100 100 100 100 100 100 100 100 100 100 100 100 100 100 100
100 85 93 100 100 100 100 100 100 100 100 100 100 100 100 100 98 74 83 89 96 93 94 94 99 100 99 100 100 100 100 100 100 100 100 100 100 100 100 100 100 100 100
100 100 100 90 99 100 100 100 100 100 100 100 100 100 100 100 100 99 87 94 99 66 10 15 58 94 99 100 100 100 100 100 100 100 100 100 100 100 100 100 100 100 100
91 94 95 98 96 100 100 100 100 100 100 100 100 86 100 100 100 100 100 100 100 97 97 82 95 92 100 99 100 100 100 100 100 100 100 100 100 100 100 100 100 100 100
100 98 85 88 99 99 99 100 100 100 100 100 100 100 100 100 100 100 100 100 89 54 71 100 100 100 100 100 100 100 100 100 100 100 100 100 100 100 100 100 100 100 79
94 100 100 100 100 100 100 70 84 88 99 100 100 100 100 100 100 100 97 100 87 93 100 100 100 100 100 100 100 100 100 100 100 100 100 100 100 100 100 100 100 100 100
92 86 81 82 100 100 85 74 49 64 84 96 48 32 50 100 100 100 77 91 100 100 100 100 100 100 100 100 100 100 100 100 100 100 100 100 100 100 100 100 100 100 100
66 35 63 74 68 44 34 58 60 70 90 100 100 100 63 19 72 96 97 100 100 100 100 100 100 99 100 100 100 100 100 100 100 100 100 100 100 100 100 100 100 100 100
85 67 54 60 89 90 96 100 98 90 100 100 100 90 5 85 100 100 100 100 100 100 97 91 85 85 85 58 100 100 100 100 100 100 100 100 100 100 100 100 100 100 100
93 94 98 90 74 83 84 75 83 69 69 77 88 20 8 51 89 88 74 84 86 32 5 11 49 84 75 59 12 74 98 100 100 100 100 100 100 100 100 100 100 100 100
6 32 26 63 42 47 53 74 71 65 63 30 21 24 19 94 98 100 100 99 46 13 19 8 5 5 31 60 65 41 18 26 60 72 98 99 95 97 100 100 100 100 99
58 45 24 60 70 30 28 86 76 72 76 92 68 38 56 100 100 100 100 96 84 94 94 68 13 9 19 37 34 27 8 20 6 9 35 8 41 49 6 5 36 33 43
5 5 7 17 26 59 81 84 100 98 88 100 100 90 67 30 12 73 78 71 68 100 100 100 99 86 73 73 75 17 27 86 5 16 11 6 20 18 7 55 71 37 24
20 9 38 5 40 58 90 100 100 100 100 100 100 100 70 36 11 66 61 63 94 100 100 71 32 57 85 98 100 73 12 32 9 25 63 5 20 23 44 66 24 58 52